TimeCDT,TemperatureF,Dew PointF,Humidity,Sea Level PressureIn,VisibilityMPH,Wind Direction,Wind SpeedMPH,Gust SpeedMPH,PrecipitationIn,Events,Conditions,WindDirDegrees,DateUTC
12:56 AM,33.1,14.0,46,30.36,10.0,SE,5.8,-,N/A,,Partly Cloudy,130,2013-04-21 05:56:00
1:56 AM,33.1,15.1,48,30.36,10.0,SE,5.8,-,N/A,,Mostly Cloudy,130,2013-04-21 06:56:00
2:56 AM,33.1,16.0,50,30.35,10.0,SE,4.6,-,N/A,,Overcast,140,2013-04-21 07:56:00
3:56 AM,34.0,17.1,50,30.35,10.0,SSE,5.8,-,N/A,,Overcast,150,2013-04-21 08:56:00
4:56 AM,34.0,19.0,54,30.37,9.0,South,5.8,-,0.00,Snow,Light Snow,190,2013-04-21 09:56:00
5:06 AM,35.6,23.0,60,30.34,5.0,South,12.7,-,0.00,Snow,Light Snow,180,2013-04-21 10:06:00
5:40 AM,32.0,28.4,87,30.35,3.0,South,8.1,-,0.00,Snow,Light Snow,170,2013-04-21 10:40:00
5:50 AM,32.0,28.4,87,30.35,2.5,SSE,6.9,-,0.00,Snow,Light Snow,160,2013-04-21 10:50:00
5:56 AM,32.0,28.9,88,30.38,1.8,SSE,8.1,-,0.00,Snow,Light Snow,150,2013-04-21 10:56:00
6:09 AM,30.2,28.4,93,30.35,2.0,SE,6.9,-,0.00,Snow,Light Snow,140,2013-04-21 11:09:00
6:16 AM,30.2,28.4,93,30.34,1.8,SE,8.1,-,0.00,Snow,Light Snow,130,2013-04-21 11:16:00
6:22 AM,30.2,28.4,93,30.34,2.0,SE,6.9,-,0.00,Snow,Light Snow,140,2013-04-21 11:22:00
6:32 AM,30.2,28.4,93,30.34,3.0,SE,8.1,-,0.00,Snow,Light Snow,130,2013-04-21 11:32:00
6:56 AM,32.0,30.0,92,30.38,5.0,SE,9.2,-,0.00,Snow,Light Snow,140,2013-04-21 11:56:00
7:19 AM,32.0,30.2,93,30.35,2.5,SE,8.1,-,0.00,Snow,Light Snow,140,2013-04-21 12:19:00
7:46 AM,33.8,30.2,87,30.34,1.8,SE,9.2,-,0.00,Snow,Light Snow,130,2013-04-21 12:46:00
7:56 AM,33.1,30.9,92,30.38,2.0,SE,9.2,-,0.00,Snow,Light Snow,130,2013-04-21 12:56:00
8:23 AM,33.8,30.2,87,30.33,4.0,ESE,13.8,-,0.00,Snow,Light Snow,120,2013-04-21 13:23:00
8:31 AM,33.8,30.2,87,30.34,6.0,SE,13.8,-,0.00,Snow,Light Snow,140,2013-04-21 13:31:00
8:56 AM,34.0,30.9,89,30.36,10.0,SE,15.0,20.7,0.00,,Overcast,140,2013-04-21 13:56:00
9:07 AM,33.8,30.2,87,30.33,9.0,SE,13.8,-,0.00,Snow,Light Snow,140,2013-04-21 14:07:00
9:56 AM,34.0,30.9,89,30.35,10.0,SSE,15.0,23.0,0.00,,Overcast,150,2013-04-21 14:56:00
10:47 AM,33.8,30.2,87,30.31,1.8,SSE,13.8,19.6,0.00,Snow,Light Snow,150,2013-04-21 15:47:00
10:56 AM,33.1,30.9,92,30.34,1.2,SSE,10.4,19.6,0.00,Snow,Light Snow,150,2013-04-21 15:56:00
11:09 AM,33.8,30.2,87,30.30,2.0,SSE,13.8,-,0.01,Snow,Light Snow,160,2013-04-21 16:09:00
11:18 AM,33.8,30.2,87,30.30,1.8,SSE,10.4,-,0.01,Snow,Light Snow,150,2013-04-21 16:18:00
11:56 AM,34.0,30.9,89,30.31,1.2,SE,12.7,21.9,0.02,Snow,Light Snow,140,2013-04-21 16:56:00
12:02 PM,33.8,32.0,93,30.27,2.0,SE,11.5,-,0.00,Snow,Light Snow,130,2013-04-21 17:02:00
12:12 PM,33.8,32.0,93,30.27,5.0,SE,13.8,20.7,0.00,Snow,Light Snow,140,2013-04-21 17:12:00
12:56 PM,36.0,32.0,86,30.28,10.0,SE,11.5,-,0.00,,Overcast,140,2013-04-21 17:56:00
1:10 PM,37.4,33.8,87,30.24,10.0,SE,15.0,21.9,N/A,,Overcast,140,2013-04-21 18:10:00
1:56 PM,37.0,32.0,82,30.25,10.0,SE,18.4,-,0.00,Rain,Light Rain,140,2013-04-21 18:56:00
2:56 PM,39.9,33.1,77,30.20,10.0,SE,15.0,23.0,0.00,Rain,Light Rain,140,2013-04-21 19:56:00
3:21 PM,42.8,33.8,70,30.16,10.0,SE,13.8,21.9,0.00,,Overcast,140,2013-04-21 20:21:00
3:56 PM,45.0,35.1,68,30.17,10.0,SSE,13.8,21.9,0.00,,Overcast,150,2013-04-21 20:56:00
4:56 PM,44.1,34.0,68,30.16,10.0,SE,15.0,-,N/A,,Overcast,140,2013-04-21 21:56:00
5:56 PM,45.0,34.0,65,30.14,10.0,ESE,8.1,-,N/A,,Clear,110,2013-04-21 22:56:00
6:56 PM,44.1,35.1,71,30.12,10.0,ESE,5.8,-,N/A,,Overcast,110,2013-04-21 23:56:00
7:56 PM,42.1,37.9,85,30.12,10.0,East,3.5,-,0.03,Rain,Light Rain,100,2013-04-22 00:56:00
8:56 PM,39.9,39.0,97,30.15,6.0,Calm,Calm,-,0.01,Rain,Light Rain,0,2013-04-22 01:56:00
9:56 PM,42.1,41.0,96,30.14,4.0,SE,8.1,-,0.08,Rain,Rain,130,2013-04-22 02:56:00
10:56 PM,44.1,42.1,93,30.12,10.0,SSE,13.8,-,0.06,Rain,Light Rain,160,2013-04-22 03:56:00
11:03 PM,44.6,42.8,93,30.10,9.0,South,13.8,-,0.00,Rain,Light Rain,170,2013-04-22 04:03:00
11:11 PM,44.6,42.8,93,30.10,7.0,South,15.0,-,0.00,Rain,Light Rain,180,2013-04-22 04:11:00
11:19 PM,44.6,42.8,93,30.10,8.0,South,13.8,-,0.00,Rain,Light Rain,180,2013-04-22 04:19:00
11:33 PM,44.6,44.6,100,30.09,7.0,South,12.7,-,0.00,Rain,Light Rain,170,2013-04-22 04:33:00
11:56 PM,45.0,44.1,97,30.12,10.0,South,12.7,-,0.00,,Overcast,170,2013-04-22 04:56:00